Time,TemperatureF,DewpointF,PressureIn,WindDirection,WindDirectionDegrees,WindSpeedMPH,WindSpeedGustMPH,Humidity,HourlyPrecipIn,Conditions,Clouds,dailyrainin,SoftwareType,DateUTC
2013-04-19 00:00:00,38.0,28.0,30.16,NNW,347,8.0,8.0,67,0.00,,,3.25,Wunderground v.1.15,2013-04-19 05:00:00,
2013-04-19 00:05:00,38.0,28.0,30.16,NW,309,7.0,8.0,67,0.00,,,0.00,Wunderground v.1.15,2013-04-19 05:05:00,
2013-04-19 00:10:00,37.9,27.9,30.16,NNW,331,7.0,7.0,67,0.00,,,0.00,Wunderground v.1.15,2013-04-19 05:10:00,
2013-04-19 00:15:00,38.0,28.0,30.16,WNW,290,7.0,13.0,67,0.00,,,0.00,Wunderground v.1.15,2013-04-19 05:15:00,
2013-04-19 00:20:00,38.0,28.0,30.15,NNW,328,8.0,8.0,67,0.00,,,0.00,Wunderground v.1.15,2013-04-19 05:20:00,
2013-04-19 00:25:00,38.0,28.0,30.16,NNW,343,8.0,8.0,67,0.00,,,0.00,Wunderground v.1.15,2013-04-19 05:25:00,
2013-04-19 00:30:00,38.0,28.4,30.15,NW,321,6.0,6.0,68,0.00,,,0.00,Wunderground v.1.15,2013-04-19 05:30:00,
2013-04-19 00:35:00,38.0,28.7,30.15,NW,315,6.0,12.0,69,0.00,,,-99.99,WeatherLink 6.0.2,2013-04-19 05:35:00,
2013-04-19 00:39:00,37.9,28.6,30.15,NNW,333,5.0,5.0,69,0.00,,,0.00,Wunderground v.1.15,2013-04-19 05:39:00,
2013-04-19 00:44:00,37.9,28.3,30.15,NNW,342,6.0,6.0,68,0.00,,,0.00,Wunderground v.1.15,2013-04-19 05:44:00,
2013-04-19 00:50:00,38.0,28.4,30.15,NW,317,7.0,7.0,68,0.00,,,0.00,Wunderground v.1.15,2013-04-19 05:50:00,
2013-04-19 00:55:00,38.0,28.7,30.16,NW,319,6.0,7.0,69,0.00,,,0.00,Wunderground v.1.15,2013-04-19 05:55:00,
2013-04-19 01:00:00,37.9,28.6,30.16,NW,310,7.0,7.0,69,0.00,,,0.00,Wunderground v.1.15,2013-04-19 06:00:00,
2013-04-19 01:05:00,37.9,29.0,30.16,WNW,300,5.0,7.0,70,0.00,,,0.00,Wunderground v.1.15,2013-04-19 06:05:00,
2013-04-19 01:10:00,37.9,29.0,30.15,NW,315,5.0,5.0,70,0.00,,,0.00,Wunderground v.1.15,2013-04-19 06:10:00,
2013-04-19 01:15:00,37.9,29.0,30.15,NW,313,6.0,6.0,70,0.00,,,0.00,Wunderground v.1.15,2013-04-19 06:15:00,
2013-04-19 01:20:00,37.9,29.3,30.16,NW,315,3.0,10.0,71,0.00,,,-99.99,WeatherLink 6.0.2,2013-04-19 06:20:00,
2013-04-19 01:24:00,37.8,29.2,30.15,NW,307,3.0,7.0,71,0.00,,,0.00,Wunderground v.1.15,2013-04-19 06:24:00,
2013-04-19 01:29:00,37.8,29.2,30.15,NW,306,1.0,1.0,71,0.00,,,0.00,Wunderground v.1.15,2013-04-19 06:29:00,
2013-04-19 01:35:00,37.7,29.1,30.16,WNW,294,1.0,1.0,71,0.00,,,0.00,Wunderground v.1.15,2013-04-19 06:35:00,
2013-04-19 01:40:00,37.6,29.4,30.15,West,279,2.0,2.0,72,0.00,,,0.00,Wunderground v.1.15,2013-04-19 06:40:00,
2013-04-19 01:45:00,37.6,29.4,30.15,WNW,299,2.0,3.0,72,0.00,,,0.00,Wunderground v.1.15,2013-04-19 06:45:00,
2013-04-19 01:50:00,37.6,29.4,30.15,WNW,292,1.0,11.0,72,0.00,,,-99.99,WeatherLink 6.0.2,2013-04-19 06:50:00,
2013-04-19 01:54:00,37.6,29.4,30.15,West,275,1.0,2.0,72,0.00,,,0.00,Wunderground v.1.15,2013-04-19 06:54:00,
2013-04-19 01:59:00,37.6,29.4,30.15,NW,307,1.0,1.0,72,0.00,,,0.00,Wunderground v.1.15,2013-04-19 06:59:00,
2013-04-19 02:04:00,37.6,29.4,30.15,WNW,300,1.0,1.0,72,0.00,,,0.00,Wunderground v.1.15,2013-04-19 07:04:00,
2013-04-19 02:05:00,37.5,29.3,30.15,WNW,292,3.0,12.0,72,0.00,,,-99.99,WeatherLink 6.0.2,2013-04-19 07:05:00,
2013-04-19 02:10:00,37.5,29.3,30.15,WNW,302,2.0,2.0,72,0.00,,,0.00,Wunderground v.1.15,2013-04-19 07:10:00,
2013-04-19 02:15:00,37.4,29.5,30.15,West,281,1.0,2.0,73,0.00,,,0.00,Wunderground v.1.15,2013-04-19 07:15:00,
2013-04-19 02:20:00,37.3,29.4,30.15,West,281,0.0,0.0,73,0.00,,,0.00,Wunderground v.1.15,2013-04-19 07:20:00,
2013-04-19 02:25:00,37.3,29.4,30.15,WNW,288,1.0,3.0,73,0.00,,,0.00,Wunderground v.1.15,2013-04-19 07:25:00,
2013-04-19 02:30:00,37.4,29.5,30.15,WNW,296,3.0,9.0,73,0.00,,,0.00,Wunderground v.1.15,2013-04-19 07:30:00,
2013-04-19 02:35:00,37.5,29.6,30.15,WNW,303,3.0,9.0,73,0.00,,,0.00,Wunderground v.1.15,2013-04-19 07:35:00,
2013-04-19 02:40:00,37.5,29.6,30.14,WNW,302,2.0,7.0,73,0.00,,,0.00,Wunderground v.1.15,2013-04-19 07:40:00,
2013-04-19 02:45:00,37.5,29.3,30.15,NW,311,3.0,7.0,72,0.00,,,0.00,Wunderground v.1.15,2013-04-19 07:45:00,
2013-04-19 02:50:00,37.6,29.4,30.15,WNW,292,5.0,14.0,72,0.00,,,-99.99,WeatherLink 6.0.2,2013-04-19 07:50:00,
2013-04-19 02:55:00,37.7,29.5,30.15,NW,321,4.0,5.0,72,0.00,,,0.00,Wunderground v.1.15,2013-04-19 07:55:00,
2013-04-19 03:00:00,37.7,29.1,30.15,WNW,296,5.0,5.0,71,0.00,,,0.00,Wunderground v.1.15,2013-04-19 08:00:00,
2013-04-19 03:05:00,37.7,29.1,30.14,WNW,292,4.0,17.0,71,0.00,,,-99.99,WeatherLink 6.0.2,2013-04-19 08:05:00,
2013-04-19 03:09:00,37.7,28.8,30.14,West,279,5.0,9.0,70,0.00,,,0.00,Wunderground v.1.15,2013-04-19 08:09:00,
2013-04-19 03:15:00,37.7,28.8,30.14,West,261,9.0,9.0,70,0.00,,,0.00,Wunderground v.1.15,2013-04-19 08:15:00,
2013-04-19 03:19:00,37.5,28.9,30.15,NW,304,8.0,8.0,71,0.00,,,0.00,Wunderground v.1.15,2013-04-19 08:19:00,
2013-04-19 03:20:00,37.5,28.9,30.15,NW,315,6.0,16.0,71,0.00,,,-99.99,WeatherLink 6.0.2,2013-04-19 08:20:00,
2013-04-19 03:25:00,37.3,28.8,30.14,NW,309,7.0,8.0,71,0.00,,,0.00,Wunderground v.1.15,2013-04-19 08:25:00,
2013-04-19 03:30:00,37.1,28.6,30.15,West,265,6.0,6.0,71,0.00,,,0.00,Wunderground v.1.15,2013-04-19 08:30:00,
2013-04-19 03:35:00,36.8,28.3,30.15,West,277,6.0,6.0,71,0.00,,,0.00,Wunderground v.1.15,2013-04-19 08:35:00,
2013-04-19 03:40:00,36.6,28.4,30.15,NNW,333,6.0,8.0,72,0.00,,,0.00,Wunderground v.1.15,2013-04-19 08:40:00,
2013-04-19 03:45:00,36.4,28.2,30.15,WNW,300,5.0,10.0,72,0.00,,,0.00,Wunderground v.1.15,2013-04-19 08:45:00,
2013-04-19 03:50:00,36.3,28.5,30.15,WNW,292,6.0,14.0,73,0.00,,,-99.99,WeatherLink 6.0.2,2013-04-19 08:50:00,
2013-04-19 03:55:00,36.3,28.5,30.15,NW,320,7.0,8.0,73,0.00,,,0.00,Wunderground v.1.15,2013-04-19 08:55:00,
2013-04-19 04:00:00,36.2,28.4,30.15,WNW,299,6.0,8.0,73,0.00,,,0.00,Wunderground v.1.15,2013-04-19 09:00:00,
2013-04-19 04:05:00,36.1,28.3,30.15,WNW,292,4.0,13.0,73,0.00,,,-99.99,WeatherLink 6.0.2,2013-04-19 09:05:00,
2013-04-19 04:10:00,35.9,28.1,30.15,NW,309,5.0,8.0,73,0.00,,,0.00,Wunderground v.1.15,2013-04-19 09:10:00,
2013-04-19 04:15:00,35.7,27.9,30.16,NW,307,4.0,8.0,73,0.00,,,0.00,Wunderground v.1.15,2013-04-19 09:15:00,
2013-04-19 04:20:00,35.6,28.1,30.16,WNW,299,5.0,5.0,74,0.00,,,0.00,Wunderground v.1.15,2013-04-19 09:20:00,
2013-04-19 04:25:00,35.6,28.1,30.16,WNW,292,7.0,7.0,74,0.00,,,0.00,Wunderground v.1.15,2013-04-19 09:25:00,
2013-04-19 04:30:00,35.6,28.1,30.16,WNW,288,6.0,8.0,74,0.00,,,0.00,Wunderground v.1.15,2013-04-19 09:30:00,
2013-04-19 04:35:00,35.4,27.9,30.16,WNW,292,3.0,9.0,74,0.00,,,-99.99,WeatherLink 6.0.2,2013-04-19 09:35:00,
2013-04-19 04:39:00,35.3,27.8,30.16,NW,317,3.0,3.0,74,0.00,,,0.00,Wunderground v.1.15,2013-04-19 09:39:00,
2013-04-19 04:45:00,35.1,27.6,30.16,WNW,293,3.0,3.0,74,0.00,,,0.00,Wunderground v.1.15,2013-04-19 09:45:00,
2013-04-19 04:50:00,35.0,27.9,30.16,WNW,290,2.0,2.0,75,0.00,,,0.00,Wunderground v.1.15,2013-04-19 09:50:00,
2013-04-19 04:55:00,34.9,27.8,30.16,NW,318,2.0,8.0,75,0.00,,,0.00,Wunderground v.1.15,2013-04-19 09:55:00,
2013-04-19 05:00:00,34.9,27.8,30.16,NNW,329,5.0,7.0,75,0.00,,,0.00,Wunderground v.1.15,2013-04-19 10:00:00,
2013-04-19 05:05:00,34.9,27.8,30.16,WNW,303,5.0,7.0,75,0.00,,,0.00,Wunderground v.1.15,2013-04-19 10:05:00,
2013-04-19 05:10:00,34.7,27.6,30.17,WNW,303,2.0,2.0,75,0.00,,,0.00,Wunderground v.1.15,2013-04-19 10:10:00,
2013-04-19 05:15:00,34.6,27.5,30.16,WNW,298,1.0,2.0,75,0.00,,,0.00,Wunderground v.1.15,2013-04-19 10:15:00,
2013-04-19 05:20:00,34.4,27.6,30.16,WNW,292,2.0,10.0,76,0.00,,,-99.99,WeatherLink 6.0.2,2013-04-19 10:20:00,
2013-04-19 05:24:00,34.5,27.7,30.17,NW,305,3.0,4.0,76,0.00,,,0.00,Wunderground v.1.15,2013-04-19 10:24:00,
2013-04-19 05:30:00,34.4,27.6,30.16,NW,315,4.0,4.0,76,0.00,,,0.00,Wunderground v.1.15,2013-04-19 10:30:00,
2013-04-19 05:35:00,34.4,27.6,30.17,NW,304,4.0,4.0,76,0.00,,,0.00,Wunderground v.1.15,2013-04-19 10:35:00,
2013-04-19 05:44:00,34.4,27.6,30.17,WNW,288,5.0,6.0,76,0.00,,,0.00,Wunderground v.1.15,2013-04-19 10:44:00,
2013-04-19 05:50:00,34.4,27.6,30.17,WNW,303,3.0,9.0,76,0.00,,,0.00,Wunderground v.1.15,2013-04-19 10:50:00,
2013-04-19 05:55:00,34.4,27.6,30.18,WNW,298,4.0,9.0,76,0.00,,,0.00,Wunderground v.1.15,2013-04-19 10:55:00,
2013-04-19 06:00:00,34.4,27.6,30.18,NW,321,5.0,6.0,76,0.00,,,0.00,Wunderground v.1.15,2013-04-19 11:00:00,
2013-04-19 06:05:00,34.3,27.8,30.19,WNW,292,4.0,14.0,77,0.00,,,-99.99,WeatherLink 6.0.2,2013-04-19 11:05:00,
2013-04-19 06:09:00,34.3,27.5,30.19,West,275,5.0,8.0,76,0.00,,,0.00,Wunderground v.1.15,2013-04-19 11:09:00,
2013-04-19 06:14:00,34.3,27.5,30.19,WNW,298,5.0,11.0,76,0.00,,,0.00,Wunderground v.1.15,2013-04-19 11:14:00,
2013-04-19 06:20:00,34.3,27.5,30.19,WNW,292,5.0,9.0,76,0.00,,,0.00,Wunderground v.1.15,2013-04-19 11:20:00,
2013-04-19 06:25:00,34.2,27.4,30.20,NW,317,4.0,9.0,76,0.00,,,0.00,Wunderground v.1.15,2013-04-19 11:25:00,
2013-04-19 06:30:00,34.1,27.3,30.20,NW,313,2.0,8.0,76,0.00,,,0.00,Wunderground v.1.15,2013-04-19 11:30:00,
2013-04-19 06:35:00,34.0,27.2,30.20,WNW,303,4.0,8.0,76,0.00,,,0.00,Wunderground v.1.15,2013-04-19 11:35:00,
2013-04-19 06:40:00,34.1,27.3,30.20,NW,314,4.0,4.0,76,0.00,,,0.00,Wunderground v.1.15,2013-04-19 11:40:00,
2013-04-19 06:48:00,34.0,27.2,30.20,NW,315,2.0,9.0,76,0.00,,,-99.99,WeatherLink 6.0.2,2013-04-19 11:48:00,
2013-04-19 06:50:00,33.9,27.1,30.21,WNW,292,2.0,10.0,76,0.00,,,-99.99,WeatherLink 6.0.2,2013-04-19 11:50:00,
2013-04-19 06:55:00,33.9,27.1,30.21,West,281,1.0,1.0,76,0.00,,,0.00,Wunderground v.1.15,2013-04-19 11:55:00,
2013-04-19 07:00:00,33.8,27.4,30.21,NW,305,1.0,1.0,77,0.00,,,0.00,Wunderground v.1.15,2013-04-19 12:00:00,
2013-04-19 07:05:00,33.9,27.4,30.21,NW,315,0.0,3.0,77,0.00,,,-99.99,WeatherLink 6.0.2,2013-04-19 12:05:00,
2013-04-19 07:10:00,33.9,27.4,30.22,WNW,294,0.0,0.0,77,0.00,,,0.00,Wunderground v.1.15,2013-04-19 12:10:00,
2013-04-19 07:15:00,33.9,27.4,30.22,WNW,300,1.0,1.0,77,0.00,,,0.00,Wunderground v.1.15,2013-04-19 12:15:00,
2013-04-19 07:20:00,34.2,27.7,30.22,WNW,292,2.0,7.0,77,0.00,,,-99.99,WeatherLink 6.0.2,2013-04-19 12:20:00,
2013-04-19 07:24:00,34.4,27.9,30.23,WNW,286,1.0,4.0,77,0.00,,,0.00,Wunderground v.1.15,2013-04-19 12:24:00,
2013-04-19 07:29:00,34.4,27.9,30.23,NNW,334,2.0,2.0,77,0.00,,,0.00,Wunderground v.1.15,2013-04-19 12:29:00,
2013-04-19 07:34:00,34.7,27.9,30.23,WNW,298,3.0,8.0,76,0.00,,,0.00,Wunderground v.1.15,2013-04-19 12:34:00,
2013-04-19 07:35:00,34.8,28.0,30.23,WNW,292,4.0,15.0,76,0.00,,,-99.99,WeatherLink 6.0.2,2013-04-19 12:35:00,
2013-04-19 07:40:00,34.9,28.1,30.23,WNW,298,2.0,2.0,76,0.00,,,0.00,Wunderground v.1.15,2013-04-19 12:40:00,
2013-04-19 07:45:00,35.0,28.2,30.24,WNW,298,2.0,5.0,76,0.00,,,0.00,Wunderground v.1.15,2013-04-19 12:45:00,
2013-04-19 07:50:00,35.1,28.3,30.24,NW,310,3.0,3.0,76,0.00,,,0.00,Wunderground v.1.15,2013-04-19 12:50:00,
2013-04-19 07:55:00,35.4,28.6,30.24,WNW,303,2.0,4.0,76,0.00,,,0.00,Wunderground v.1.15,2013-04-19 12:55:00,
2013-04-19 08:00:00,35.6,28.5,30.24,NW,325,2.0,2.0,75,0.00,,,0.00,Wunderground v.1.15,2013-04-19 13:00:00,
2013-04-19 08:05:00,35.9,28.7,30.24,NW,314,3.0,3.0,75,0.00,,,0.00,Wunderground v.1.15,2013-04-19 13:05:00,
2013-04-19 08:10:00,36.1,28.6,30.24,NW,311,4.0,8.0,74,0.00,,,0.00,Wunderground v.1.15,2013-04-19 13:10:00,
2013-04-19 08:15:00,36.3,28.5,30.25,NW,318,5.0,8.0,73,0.00,,,0.00,Wunderground v.1.15,2013-04-19 13:15:00,
2013-04-19 08:20:00,36.5,28.7,30.25,WNW,292,4.0,12.0,73,0.00,,,-99.99,WeatherLink 6.0.2,2013-04-19 13:20:00,
2013-04-19 08:24:00,36.6,28.4,30.25,NW,319,4.0,5.0,72,0.00,,,0.00,Wunderground v.1.15,2013-04-19 13:24:00,
2013-04-19 08:30:00,36.6,28.1,30.24,WNW,297,5.0,8.0,71,0.00,,,0.00,Wunderground v.1.15,2013-04-19 13:30:00,
2013-04-19 08:35:00,36.8,28.3,30.25,NW,315,7.0,18.0,71,0.00,,,-99.99,WeatherLink 6.0.2,2013-04-19 13:35:00,
2013-04-19 08:39:00,37.0,28.8,30.25,North,360,6.0,7.0,72,0.00,,,0.00,Wunderground v.1.15,2013-04-19 13:39:00,
2013-04-19 08:45:00,36.9,28.0,30.25,NW,305,7.0,7.0,70,0.00,,,0.00,Wunderground v.1.15,2013-04-19 13:45:00,
2013-04-19 08:50:00,37.1,28.6,30.25,North,360,7.0,7.0,71,0.00,,,0.00,Wunderground v.1.15,2013-04-19 13:50:00,
2013-04-19 08:55:00,37.5,28.6,30.25,WNW,299,5.0,7.0,70,0.00,,,0.00,Wunderground v.1.15,2013-04-19 13:55:00,
2013-04-19 09:00:00,37.9,29.3,30.25,NNW,333,3.0,3.0,71,0.00,,,0.00,Wunderground v.1.15,2013-04-19 14:00:00,
2013-04-19 09:05:00,38.1,29.2,30.25,NW,315,5.0,15.0,70,0.00,,,-99.99,WeatherLink 6.0.2,2013-04-19 14:05:00,
2013-04-19 09:10:00,38.1,28.8,30.26,WNW,287,7.0,8.0,69,0.00,,,0.00,Wunderground v.1.15,2013-04-19 14:10:00,
2013-04-19 09:18:00,38.1,28.8,30.26,NW,315,10.0,19.0,69,0.00,,,-99.99,WeatherLink 6.0.2,2013-04-19 14:18:00,
2013-04-19 09:20:00,38.6,28.9,30.26,NW,315,7.0,23.0,68,0.00,,,-99.99,WeatherLink 6.0.2,2013-04-19 14:20:00,
2013-04-19 09:24:00,38.4,28.4,30.25,NW,306,8.0,20.0,67,0.00,,,0.00,Wunderground v.1.15,2013-04-19 14:24:00,
2013-04-19 09:29:00,38.4,28.8,30.26,NNW,330,10.0,10.0,68,0.00,,,0.00,Wunderground v.1.15,2013-04-19 14:29:00,
2013-04-19 09:34:00,38.9,29.6,30.26,NW,318,8.0,10.0,69,0.00,,,0.00,Wunderground v.1.15,2013-04-19 14:34:00,
2013-04-19 09:35:00,39.0,29.3,30.26,NW,315,7.0,17.0,68,0.00,,,-99.99,WeatherLink 6.0.2,2013-04-19 14:35:00,
2013-04-19 09:39:00,39.2,29.5,30.26,WNW,288,7.0,7.0,68,0.00,,,0.00,Wunderground v.1.15,2013-04-19 14:39:00,
2013-04-19 09:45:00,39.5,29.1,30.26,NW,310,7.0,7.0,66,0.00,,,0.00,Wunderground v.1.15,2013-04-19 14:45:00,
2013-04-19 09:50:00,40.0,30.3,30.25,NNW,336,6.0,6.0,68,0.00,,,0.00,Wunderground v.1.15,2013-04-19 14:50:00,
2013-04-19 09:55:00,40.7,29.8,30.25,WNW,286,4.0,6.0,65,0.00,,,0.00,Wunderground v.1.15,2013-04-19 14:55:00,
2013-04-19 10:00:00,40.2,28.6,30.26,NNW,336,5.0,9.0,63,0.00,,,0.00,Wunderground v.1.15,2013-04-19 15:00:00,
2013-04-19 10:05:00,40.3,29.1,30.26,NNW,337,6.0,17.0,64,0.00,,,-99.99,WeatherLink 6.0.2,2013-04-19 15:05:00,
2013-04-19 10:10:00,40.8,29.2,30.26,NNW,341,7.0,9.0,63,0.00,,,0.00,Wunderground v.1.15,2013-04-19 15:10:00,
2013-04-19 10:18:00,40.9,29.3,30.26,North,0,6.0,14.0,63,0.00,,,-99.99,WeatherLink 6.0.2,2013-04-19 15:18:00,
2013-04-19 10:20:00,40.9,28.5,30.26,WNW,292,8.0,18.0,61,0.00,,,-99.99,WeatherLink 6.0.2,2013-04-19 15:20:00,
2013-04-19 10:24:00,41.1,27.9,30.27,NW,323,9.0,13.0,59,0.00,,,0.00,Wunderground v.1.15,2013-04-19 15:24:00,
2013-04-19 10:30:00,41.2,29.2,30.27,WNW,295,8.0,10.0,62,0.00,,,0.00,Wunderground v.1.15,2013-04-19 15:30:00,
2013-04-19 10:35:00,41.1,27.9,30.27,WNW,296,7.0,10.0,59,0.00,,,0.00,Wunderground v.1.15,2013-04-19 15:35:00,
2013-04-19 10:40:00,41.7,29.6,30.27,NW,314,7.0,18.0,62,0.00,,,0.00,Wunderground v.1.15,2013-04-19 15:40:00,
2013-04-19 10:48:00,41.8,28.9,30.27,NW,315,6.0,19.0,60,0.00,,,-99.99,WeatherLink 6.0.2,2013-04-19 15:48:00,
2013-04-19 10:50:00,42.6,28.8,30.27,NW,315,7.0,17.0,58,0.00,,,-99.99,WeatherLink 6.0.2,2013-04-19 15:50:00,
2013-04-19 10:54:00,42.3,28.1,30.27,NW,322,9.0,13.0,57,0.00,,,0.00,Wunderground v.1.15,2013-04-19 15:54:00,
2013-04-19 10:59:00,43.0,30.1,30.27,NNW,330,9.0,9.0,60,0.00,,,0.00,Wunderground v.1.15,2013-04-19 15:59:00,
2013-04-19 11:04:00,43.2,28.5,30.27,NW,325,7.0,9.0,56,0.00,,,0.00,Wunderground v.1.15,2013-04-19 16:04:00,
2013-04-19 11:05:00,43.2,29.0,30.27,NW,315,8.0,16.0,57,0.00,,,-99.99,WeatherLink 6.0.2,2013-04-19 16:05:00,
2013-04-19 11:10:00,43.1,28.5,30.27,NNW,329,8.0,8.0,56,0.00,,,0.00,Wunderground v.1.15,2013-04-19 16:10:00,
2013-04-19 11:15:00,43.3,27.8,30.27,WNW,296,8.0,8.0,54,0.00,,,0.00,Wunderground v.1.15,2013-04-19 16:15:00,
2013-04-19 11:20:00,43.4,28.7,30.27,NW,321,6.0,6.0,56,0.00,,,0.00,Wunderground v.1.15,2013-04-19 16:20:00,
2013-04-19 11:25:00,43.4,28.7,30.27,WNW,290,5.0,7.0,56,0.00,,,0.00,Wunderground v.1.15,2013-04-19 16:25:00,
2013-04-19 11:30:00,43.7,29.0,30.27,NW,305,6.0,9.0,56,0.00,,,0.00,Wunderground v.1.15,2013-04-19 16:30:00,
2013-04-19 11:35:00,44.2,29.0,30.27,NNW,348,7.0,9.0,55,0.00,,,0.00,Wunderground v.1.15,2013-04-19 16:35:00,
2013-04-19 11:40:00,44.3,28.7,30.27,West,272,9.0,9.0,54,0.00,,,0.00,Wunderground v.1.15,2013-04-19 16:40:00,
2013-04-19 11:48:00,44.3,28.2,30.27,NW,315,10.0,18.0,53,0.00,,,-99.99,WeatherLink 6.0.2,2013-04-19 16:48:00,
2013-04-19 11:50:00,44.3,28.7,30.27,NW,315,10.0,18.0,54,0.00,,,-99.99,WeatherLink 6.0.2,2013-04-19 16:50:00,
2013-04-19 11:54:00,45.0,28.9,30.27,NW,317,9.0,9.0,53,0.00,,,0.00,Wunderground v.1.15,2013-04-19 16:54:00,
2013-04-19 11:59:00,45.8,30.1,30.27,NW,309,6.0,18.0,54,0.00,,,0.00,Wunderground v.1.15,2013-04-19 16:59:00,
2013-04-19 12:05:00,45.8,28.7,30.27,NW,323,7.0,18.0,51,0.00,,,0.00,Wunderground v.1.15,2013-04-19 17:05:00,
2013-04-19 12:10:00,45.6,29.0,30.27,WSW,253,6.0,6.0,52,0.00,,,0.00,Wunderground v.1.15,2013-04-19 17:10:00,
2013-04-19 12:15:00,46.0,29.3,30.27,WNW,283,4.0,13.0,52,0.00,,,0.00,Wunderground v.1.15,2013-04-19 17:15:00,
2013-04-19 12:20:00,45.9,28.3,30.26,WNW,292,2.0,9.0,50,0.00,,,-99.99,WeatherLink 6.0.2,2013-04-19 17:20:00,
2013-04-19 12:24:00,45.8,26.2,30.26,NW,313,6.0,6.0,46,0.00,,,0.00,Wunderground v.1.15,2013-04-19 17:24:00,
2013-04-19 12:29:00,46.1,28.0,30.26,NW,319,6.0,9.0,49,0.00,,,0.00,Wunderground v.1.15,2013-04-19 17:29:00,
2013-04-19 12:34:00,46.5,28.8,30.26,North,5,4.0,9.0,50,0.00,,,0.00,Wunderground v.1.15,2013-04-19 17:34:00,
2013-04-19 12:35:00,46.6,28.9,30.26,West,270,5.0,16.0,50,0.00,,,-99.99,WeatherLink 6.0.2,2013-04-19 17:35:00,
2013-04-19 12:39:00,46.9,27.7,30.26,NNW,335,6.0,7.0,47,0.00,,,0.00,Wunderground v.1.15,2013-04-19 17:39:00,
2013-04-19 12:44:00,47.2,29.0,30.26,NW,306,7.0,7.0,49,0.00,,,0.00,Wunderground v.1.15,2013-04-19 17:44:00,
2013-04-19 12:50:00,47.5,27.2,30.26,WNW,292,10.0,19.0,45,0.00,,,-99.99,WeatherLink 6.0.2,2013-04-19 17:50:00,
2013-04-19 12:54:00,47.3,27.0,30.26,NW,325,7.0,12.0,45,0.00,,,0.00,Wunderground v.1.15,2013-04-19 17:54:00,
2013-04-19 12:59:00,47.6,27.8,30.26,NW,313,6.0,7.0,46,0.00,,,0.00,Wunderground v.1.15,2013-04-19 17:59:00,
2013-04-19 13:04:00,47.8,29.5,30.26,WNW,286,6.0,7.0,49,0.00,,,0.00,Wunderground v.1.15,2013-04-19 18:04:00,
2013-04-19 13:05:00,47.9,28.6,30.26,WNW,292,5.0,16.0,47,0.00,,,-99.99,WeatherLink 6.0.2,2013-04-19 18:05:00,
2013-04-19 13:10:00,47.9,28.1,30.26,WNW,284,8.0,9.0,46,0.00,,,0.00,Wunderground v.1.15,2013-04-19 18:10:00,
2013-04-19 13:18:00,48.0,29.2,30.26,WNW,292,9.0,21.0,48,0.00,,,-99.99,WeatherLink 6.0.2,2013-04-19 18:18:00,
2013-04-19 13:20:00,48.0,28.2,30.25,WNW,292,7.0,16.0,46,0.00,,,-99.99,WeatherLink 6.0.2,2013-04-19 18:20:00,
2013-04-19 13:24:00,48.5,29.2,30.25,West,273,5.0,8.0,47,0.00,,,0.00,Wunderground v.1.15,2013-04-19 18:24:00,
2013-04-19 13:29:00,48.3,28.5,30.25,WNW,284,6.0,9.0,46,0.00,,,0.00,Wunderground v.1.15,2013-04-19 18:29:00,
2013-04-19 13:34:00,48.4,28.0,30.25,NW,317,9.0,9.0,45,0.00,,,0.00,Wunderground v.1.15,2013-04-19 18:34:00,
2013-04-19 13:35:00,48.5,28.6,30.25,WNW,292,7.0,19.0,46,0.00,,,-99.99,WeatherLink 6.0.2,2013-04-19 18:35:00,
2013-04-19 13:40:00,48.7,29.9,30.25,NW,325,7.0,9.0,48,0.00,,,0.00,Wunderground v.1.15,2013-04-19 18:40:00,
2013-04-19 13:45:00,49.2,29.8,30.25,NW,318,7.0,9.0,47,0.00,,,0.00,Wunderground v.1.15,2013-04-19 18:45:00,
2013-04-19 13:50:00,49.5,28.5,30.24,NNW,330,8.0,12.0,44,0.00,,,0.00,Wunderground v.1.15,2013-04-19 18:50:00,
2013-04-19 13:55:00,49.6,28.6,30.24,NNW,328,9.0,12.0,44,0.00,,,0.00,Wunderground v.1.15,2013-04-19 18:55:00,
2013-04-19 14:00:00,49.6,28.0,30.24,West,277,8.0,8.0,43,0.00,,,0.00,Wunderground v.1.15,2013-04-19 19:00:00,
2013-04-19 14:05:00,50.0,30.5,30.24,WNW,292,1.0,6.0,47,0.00,,,-99.99,WeatherLink 6.0.2,2013-04-19 19:05:00,
2013-04-19 14:09:00,50.3,30.3,30.24,WSW,254,3.0,12.0,46,0.00,,,0.00,Wunderground v.1.15,2013-04-19 19:09:00,
2013-04-19 14:14:00,50.1,29.6,30.24,West,261,3.0,12.0,45,0.00,,,0.00,Wunderground v.1.15,2013-04-19 19:14:00,
2013-04-19 14:20:00,50.0,28.4,30.23,NW,304,4.0,4.0,43,0.00,,,0.00,Wunderground v.1.15,2013-04-19 19:20:00,
2013-04-19 14:25:00,50.6,30.0,30.23,NW,324,4.0,4.0,45,0.00,,,0.00,Wunderground v.1.15,2013-04-19 19:25:00,
2013-04-19 14:30:00,50.6,28.9,30.23,WSW,258,4.0,4.0,43,0.00,,,0.00,Wunderground v.1.15,2013-04-19 19:30:00,
2013-04-19 14:35:00,51.2,29.4,30.23,WNW,298,4.0,11.0,43,0.00,,,0.00,Wunderground v.1.15,2013-04-19 19:35:00,
2013-04-19 14:40:00,51.0,29.3,30.23,WNW,295,5.0,8.0,43,0.00,,,0.00,Wunderground v.1.15,2013-04-19 19:40:00,
2013-04-19 14:45:00,51.5,29.1,30.23,West,260,6.0,8.0,42,0.00,,,0.00,Wunderground v.1.15,2013-04-19 19:45:00,
2013-04-19 14:50:00,51.4,27.9,30.23,WNW,300,5.0,5.0,40,0.00,,,0.00,Wunderground v.1.15,2013-04-19 19:50:00,
2013-04-19 14:55:00,51.7,28.7,30.23,NW,321,3.0,9.0,41,0.00,,,0.00,Wunderground v.1.15,2013-04-19 19:55:00,
2013-04-19 15:03:00,51.8,28.8,30.23,WNW,292,4.0,14.0,41,0.00,,,-99.99,WeatherLink 6.0.2,2013-04-19 20:03:00,
2013-04-19 15:05:00,51.8,29.4,30.22,West,270,3.0,8.0,42,0.00,,,-99.99,WeatherLink 6.0.2,2013-04-19 20:05:00,
2013-04-19 15:10:00,52.0,30.2,30.23,West,269,3.0,3.0,43,0.00,,,0.00,Wunderground v.1.15,2013-04-19 20:10:00,
2013-04-19 15:15:00,52.4,31.1,30.22,SSW,211,2.0,7.0,44,0.00,,,0.00,Wunderground v.1.15,2013-04-19 20:15:00,
2013-04-19 15:20:00,52.0,30.2,30.22,WSW,247,3.0,10.0,43,0.00,,,-99.99,WeatherLink 6.0.2,2013-04-19 20:20:00,
2013-04-19 15:25:00,52.5,30.0,30.22,WSW,253,3.0,3.0,42,0.00,,,0.00,Wunderground v.1.15,2013-04-19 20:25:00,
2013-04-19 15:30:00,53.5,33.2,30.22,West,278,2.0,2.0,46,0.00,,,0.00,Wunderground v.1.15,2013-04-19 20:30:00,
2013-04-19 15:35:00,53.9,30.7,30.22,WSW,240,2.0,7.0,41,0.00,,,0.00,Wunderground v.1.15,2013-04-19 20:35:00,
2013-04-19 15:40:00,53.2,30.1,30.22,West,280,3.0,3.0,41,0.00,,,0.00,Wunderground v.1.15,2013-04-19 20:40:00,
2013-04-19 15:45:00,53.2,30.1,30.22,WSW,246,4.0,4.0,41,0.00,,,0.00,Wunderground v.1.15,2013-04-19 20:45:00,
2013-04-19 15:50:00,53.2,30.1,30.21,West,270,4.0,14.0,41,0.00,,,-99.99,WeatherLink 6.0.2,2013-04-19 20:50:00,
2013-04-19 15:54:00,53.4,30.9,30.21,WSW,250,4.0,6.0,42,0.00,,,0.00,Wunderground v.1.15,2013-04-19 20:54:00,
2013-04-19 16:03:00,53.5,30.4,30.21,WSW,247,4.0,12.0,41,0.00,,,-99.99,WeatherLink 6.0.2,2013-04-19 21:03:00,
2013-04-19 16:05:00,53.6,29.2,30.22,WSW,247,7.0,16.0,39,0.00,,,-99.99,WeatherLink 6.0.2,2013-04-19 21:05:00,
2013-04-19 16:09:00,53.6,29.2,30.21,NW,304,5.0,5.0,39,0.00,,,0.00,Wunderground v.1.15,2013-04-19 21:09:00,
2013-04-19 16:14:00,53.9,30.7,30.21,West,261,4.0,5.0,41,0.00,,,0.00,Wunderground v.1.15,2013-04-19 21:14:00,
2013-04-19 16:19:00,54.2,31.0,30.21,WSW,242,3.0,5.0,41,0.00,,,0.00,Wunderground v.1.15,2013-04-19 21:19:00,
2013-04-19 16:20:00,54.2,30.4,30.21,West,270,3.0,16.0,40,0.00,,,-99.99,WeatherLink 6.0.2,2013-04-19 21:20:00,
2013-04-19 16:24:00,53.9,30.1,30.21,West,264,5.0,9.0,40,0.00,,,0.00,Wunderground v.1.15,2013-04-19 21:24:00,
2013-04-19 16:29:00,53.9,29.5,30.21,WNW,299,6.0,9.0,39,0.00,,,0.00,Wunderground v.1.15,2013-04-19 21:29:00,
2013-04-19 16:34:00,54.1,29.0,30.21,NNW,348,6.0,9.0,38,0.00,,,0.00,Wunderground v.1.15,2013-04-19 21:34:00,
2013-04-19 16:35:00,54.1,30.3,30.21,WNW,292,7.0,23.0,40,0.00,,,-99.99,WeatherLink 6.0.2,2013-04-19 21:35:00,
2013-04-19 16:44:00,54.8,29.7,30.21,NW,308,4.0,7.0,38,0.00,,,0.00,Wunderground v.1.15,2013-04-19 21:44:00,
2013-04-19 16:49:00,54.9,28.4,30.21,NW,314,3.0,6.0,36,0.00,,,0.00,Wunderground v.1.15,2013-04-19 21:49:00,
2013-04-19 16:50:00,54.8,29.0,30.22,NW,315,6.0,14.0,37,0.00,,,-99.99,WeatherLink 6.0.2,2013-04-19 21:50:00,
2013-04-19 16:54:00,54.7,29.6,30.21,NW,318,6.0,7.0,38,0.00,,,0.00,Wunderground v.1.15,2013-04-19 21:54:00,
2013-04-19 16:59:00,54.8,29.0,30.21,WNW,287,7.0,7.0,37,0.00,,,0.00,Wunderground v.1.15,2013-04-19 21:59:00,
2013-04-19 17:04:00,55.1,31.2,30.22,WNW,292,5.0,7.0,40,0.00,,,0.00,Wunderground v.1.15,2013-04-19 22:04:00,
2013-04-19 17:05:00,55.1,30.6,30.22,WNW,292,4.0,16.0,39,0.00,,,-99.99,WeatherLink 6.0.2,2013-04-19 22:05:00,
2013-04-19 17:09:00,55.1,30.6,30.22,WNW,284,5.0,14.0,39,0.00,,,0.00,Wunderground v.1.15,2013-04-19 22:09:00,
2013-04-19 17:14:00,54.8,30.3,30.22,NW,308,7.0,14.0,39,0.00,,,0.00,Wunderground v.1.15,2013-04-19 22:14:00,
2013-04-19 17:20:00,54.9,29.1,30.22,West,270,4.0,17.0,37,0.00,,,-99.99,WeatherLink 6.0.2,2013-04-19 22:20:00,
2013-04-19 17:24:00,55.1,29.3,30.22,NW,313,5.0,7.0,37,0.00,,,0.00,Wunderground v.1.15,2013-04-19 22:24:00,
2013-04-19 17:29:00,55.2,29.4,30.22,WSW,248,5.0,13.0,37,0.00,,,0.00,Wunderground v.1.15,2013-04-19 22:29:00,
2013-04-19 17:34:00,55.1,29.9,30.22,WNW,284,6.0,13.0,38,0.00,,,0.00,Wunderground v.1.15,2013-04-19 22:34:00,
2013-04-19 17:35:00,55.2,30.7,30.22,WNW,292,5.0,11.0,39,0.00,,,-99.99,WeatherLink 6.0.2,2013-04-19 22:35:00,
2013-04-19 17:40:00,55.3,29.4,30.21,NW,305,4.0,4.0,37,0.00,,,0.00,Wunderground v.1.15,2013-04-19 22:40:00,
2013-04-19 17:45:00,55.4,30.8,30.21,WNW,299,4.0,4.0,39,0.00,,,0.00,Wunderground v.1.15,2013-04-19 22:45:00,
2013-04-19 17:50:00,55.3,30.1,30.21,West,267,5.0,5.0,38,0.00,,,0.00,Wunderground v.1.15,2013-04-19 22:50:00,
2013-04-19 17:55:00,55.3,28.8,30.21,West,277,3.0,5.0,36,0.00,,,0.00,Wunderground v.1.15,2013-04-19 22:55:00,
2013-04-19 18:00:00,55.3,30.7,30.21,WNW,286,1.0,3.0,39,0.00,,,0.00,Wunderground v.1.15,2013-04-19 23:00:00,
2013-04-19 18:05:00,55.7,30.5,30.21,WNW,292,0.0,5.0,38,0.00,,,-99.99,WeatherLink 6.0.2,2013-04-19 23:05:00,
2013-04-19 18:09:00,55.8,31.8,30.21,WNW,291,1.0,3.0,40,0.00,,,0.00,Wunderground v.1.15,2013-04-19 23:09:00,
2013-04-19 18:14:00,55.9,31.3,30.21,WSW,257,0.0,3.0,39,0.00,,,0.00,Wunderground v.1.15,2013-04-19 23:14:00,
2013-04-19 18:19:00,55.8,29.9,30.21,NW,306,1.0,1.0,37,0.00,,,0.00,Wunderground v.1.15,2013-04-19 23:19:00,
2013-04-19 18:20:00,55.8,30.5,30.21,WNW,292,1.0,7.0,38,0.00,,,-99.99,WeatherLink 6.0.2,2013-04-19 23:20:00,
2013-04-19 18:24:00,55.8,31.2,30.20,West,271,1.0,1.0,39,0.00,,,0.00,Wunderground v.1.15,2013-04-19 23:24:00,
2013-04-19 18:29:00,55.6,29.7,30.20,West,271,0.0,2.0,37,0.00,,,0.00,Wunderground v.1.15,2013-04-19 23:29:00,
2013-04-19 18:34:00,55.5,30.3,30.20,West,269,1.0,2.0,38,0.00,,,0.00,Wunderground v.1.15,2013-04-19 23:34:00,
2013-04-19 18:35:00,55.5,30.3,30.20,West,270,1.0,5.0,38,0.00,,,-99.99,WeatherLink 6.0.2,2013-04-19 23:35:00,
2013-04-19 18:39:00,55.5,32.2,30.20,West,279,1.0,1.0,41,0.00,,,0.00,Wunderground v.1.15,2013-04-19 23:39:00,
2013-04-19 18:44:00,55.5,30.9,30.19,West,264,0.0,1.0,39,0.00,,,0.00,Wunderground v.1.15,2013-04-19 23:44:00,
2013-04-19 18:49:00,55.2,32.5,30.20,SW,229,0.0,2.0,42,0.00,,,0.00,Wunderground v.1.15,2013-04-19 23:49:00,
2013-04-19 18:50:00,55.1,30.6,30.20,SW,225,1.0,4.0,39,0.00,,,-99.99,WeatherLink 6.0.2,2013-04-19 23:50:00,
2013-04-19 18:54:00,55.0,31.1,30.19,West,276,1.0,2.0,40,0.00,,,0.00,Wunderground v.1.15,2013-04-19 23:54:00,
2013-04-19 18:59:00,54.9,31.0,30.19,West,263,1.0,1.0,40,0.00,,,0.00,Wunderground v.1.15,2013-04-19 23:59:00,
2013-04-19 19:04:00,54.8,32.1,30.19,West,266,0.0,1.0,42,0.00,,,0.00,Wunderground v.1.15,2013-04-20 00:04:00,
2013-04-19 19:05:00,54.8,32.1,30.19,West,270,0.0,2.0,42,0.00,,,-99.99,WeatherLink 6.0.2,2013-04-20 00:05:00,
2013-04-19 19:09:00,54.8,32.1,30.19,West,265,0.0,0.0,42,0.00,,,0.00,Wunderground v.1.15,2013-04-20 00:09:00,
2013-04-19 19:15:00,54.6,31.3,30.19,West,266,0.0,0.0,41,0.00,,,0.00,Wunderground v.1.15,2013-04-20 00:15:00,
2013-04-19 19:20:00,54.2,31.6,30.19,West,265,0.0,0.0,42,0.00,,,0.00,Wunderground v.1.15,2013-04-20 00:20:00,
2013-04-19 19:25:00,54.0,31.4,30.19,West,265,0.0,0.0,42,0.00,,,0.00,Wunderground v.1.15,2013-04-20 00:25:00,
2013-04-19 19:30:00,53.5,32.7,30.19,West,264,0.0,0.0,45,0.00,,,0.00,Wunderground v.1.15,2013-04-20 00:30:00,
2013-04-19 19:35:00,52.7,34.6,30.19,North,-999,0.0,0.0,50,0.00,,,-99.99,WeatherLink 6.0.2,2013-04-20 00:35:00,
2013-04-19 19:39:00,51.9,33.3,30.19,West,265,0.0,0.0,49,0.00,,,0.00,Wunderground v.1.15,2013-04-20 00:39:00,
2013-04-19 19:44:00,51.4,34.3,30.19,West,264,0.0,0.0,52,0.00,,,0.00,Wunderground v.1.15,2013-04-20 00:44:00,
2013-04-19 19:49:00,50.8,35.2,30.19,West,264,0.0,0.0,55,0.00,,,0.00,Wunderground v.1.15,2013-04-20 00:49:00,
2013-04-19 19:50:00,50.7,34.6,30.19,North,-999,0.0,0.0,54,0.00,,,-99.99,WeatherLink 6.0.2,2013-04-20 00:50:00,
2013-04-19 19:55:00,50.4,35.3,30.19,West,264,0.0,0.0,56,0.00,,,0.00,Wunderground v.1.15,2013-04-20 00:55:00,
2013-04-19 20:00:00,49.7,34.2,30.19,West,265,0.0,0.0,55,0.00,,,0.00,Wunderground v.1.15,2013-04-20 01:00:00,
2013-04-19 20:05:00,49.1,34.1,30.19,West,265,0.0,0.0,56,0.00,,,0.00,Wunderground v.1.15,2013-04-20 01:05:00,
2013-04-19 20:10:00,49.1,33.6,30.19,West,265,0.0,0.0,55,0.00,,,0.00,Wunderground v.1.15,2013-04-20 01:10:00,
2013-04-19 20:15:00,49.2,35.0,30.19,West,265,0.0,0.0,58,0.00,,,0.00,Wunderground v.1.15,2013-04-20 01:15:00,
2013-04-19 20:20:00,48.8,35.5,30.20,West,265,0.0,0.0,60,0.00,,,0.00,Wunderground v.1.15,2013-04-20 01:20:00,
2013-04-19 20:25:00,47.9,34.7,30.20,West,264,0.0,0.0,60,0.00,,,0.00,Wunderground v.1.15,2013-04-20 01:25:00,
2013-04-19 20:33:00,47.8,34.6,30.20,North,-999,0.0,0.0,60,0.00,,,-99.99,WeatherLink 6.0.2,2013-04-20 01:33:00,
2013-04-19 20:35:00,46.8,35.6,30.20,North,-999,0.0,0.0,65,0.00,,,-99.99,WeatherLink 6.0.2,2013-04-20 01:35:00,
2013-04-19 20:39:00,46.7,36.3,30.20,West,265,0.0,0.0,67,0.00,,,0.00,Wunderground v.1.15,2013-04-20 01:39:00,
2013-04-19 20:44:00,46.4,36.4,30.20,West,265,0.0,0.0,68,0.00,,,0.00,Wunderground v.1.15,2013-04-20 01:44:00,
2013-04-19 20:49:00,46.3,36.3,30.20,West,264,0.0,0.0,68,0.00,,,0.00,Wunderground v.1.15,2013-04-20 01:49:00,
2013-04-19 20:50:00,46.3,36.3,30.20,North,-999,0.0,0.0,68,0.00,,,-99.99,WeatherLink 6.0.2,2013-04-20 01:50:00,
2013-04-19 20:54:00,46.1,36.5,30.21,West,265,0.0,0.0,69,0.00,,,0.00,Wunderground v.1.15,2013-04-20 01:54:00,
2013-04-19 20:59:00,46.1,35.7,30.21,West,264,0.0,0.0,67,0.00,,,0.00,Wunderground v.1.15,2013-04-20 01:59:00,
2013-04-19 21:04:00,46.1,35.4,30.21,West,265,0.0,0.0,66,0.00,,,0.00,Wunderground v.1.15,2013-04-20 02:04:00,
2013-04-19 21:05:00,46.1,35.4,30.21,North,-999,0.0,0.0,66,0.00,,,-99.99,WeatherLink 6.0.2,2013-04-20 02:05:00,
2013-04-19 21:09:00,46.1,35.4,30.22,West,265,0.0,0.0,66,0.00,,,0.00,Wunderground v.1.15,2013-04-20 02:09:00,
2013-04-19 21:15:00,46.1,35.4,30.22,West,264,0.0,0.0,66,0.00,,,0.00,Wunderground v.1.15,2013-04-20 02:15:00,
2013-04-19 21:20:00,46.0,34.9,30.22,West,265,0.0,0.0,65,0.00,,,0.00,Wunderground v.1.15,2013-04-20 02:20:00,
2013-04-19 21:30:00,46.3,33.2,30.23,West,264,0.0,0.0,60,0.00,,,0.00,Wunderground v.1.15,2013-04-20 02:30:00,
2013-04-19 21:35:00,46.6,32.6,30.23,West,265,0.0,0.0,58,0.00,,,0.00,Wunderground v.1.15,2013-04-20 02:35:00,
2013-04-19 21:40:00,46.7,32.7,30.23,West,264,0.0,0.0,58,0.00,,,0.00,Wunderground v.1.15,2013-04-20 02:40:00,
2013-04-19 21:48:00,46.7,32.7,30.23,North,-999,0.0,0.0,58,0.00,,,-99.99,WeatherLink 6.0.2,2013-04-20 02:48:00,
2013-04-19 21:50:00,47.4,32.9,30.23,North,-999,0.0,0.0,57,0.00,,,-99.99,WeatherLink 6.0.2,2013-04-20 02:50:00,
2013-04-19 21:54:00,48.1,32.7,30.23,West,265,0.0,0.0,55,0.00,,,0.00,Wunderground v.1.15,2013-04-20 02:54:00,
2013-04-19 21:59:00,49.0,31.6,30.24,West,264,0.0,0.0,51,0.00,,,0.00,Wunderground v.1.15,2013-04-20 02:59:00,
2013-04-19 22:05:00,49.1,33.6,30.24,NNW,337,0.0,4.0,55,0.00,,,-99.99,WeatherLink 6.0.2,2013-04-20 03:05:00,
2013-04-19 22:09:00,48.1,33.1,30.24,North,351,1.0,1.0,56,0.00,,,0.00,Wunderground v.1.15,2013-04-20 03:09:00,
2013-04-19 22:15:00,47.9,34.3,30.24,NW,315,0.0,1.0,59,0.00,,,0.00,Wunderground v.1.15,2013-04-20 03:15:00,
2013-04-19 22:20:00,49.1,32.7,30.24,West,267,0.0,0.0,53,0.00,,,0.00,Wunderground v.1.15,2013-04-20 03:20:00,
2013-04-19 22:25:00,48.3,33.3,30.24,West,267,0.0,0.0,56,0.00,,,0.00,Wunderground v.1.15,2013-04-20 03:25:00,
2013-04-19 22:33:00,48.3,33.3,30.24,North,-999,0.0,0.0,56,0.00,,,-99.99,WeatherLink 6.0.2,2013-04-20 03:33:00,
2013-04-19 22:35:00,47.9,32.0,30.24,North,-999,0.0,0.0,54,0.00,,,-99.99,WeatherLink 6.0.2,2013-04-20 03:35:00,
2013-04-19 22:39:00,47.5,33.0,30.24,West,267,0.0,0.0,57,0.00,,,0.00,Wunderground v.1.15,2013-04-20 03:39:00,
2013-04-19 22:44:00,46.6,32.2,30.25,West,267,0.0,0.0,57,0.00,,,0.00,Wunderground v.1.15,2013-04-20 03:44:00,
2013-04-19 22:49:00,46.5,32.9,30.24,West,267,0.0,0.0,59,0.00,,,0.00,Wunderground v.1.15,2013-04-20 03:49:00,
2013-04-19 22:50:00,46.3,32.7,30.24,North,-999,0.0,0.0,59,0.00,,,-99.99,WeatherLink 6.0.2,2013-04-20 03:50:00,
2013-04-19 22:55:00,45.4,32.3,30.25,West,267,0.0,0.0,60,0.00,,,0.00,Wunderground v.1.15,2013-04-20 03:55:00,
2013-04-19 23:00:00,44.9,32.7,30.24,West,267,0.0,0.0,62,0.00,,,0.00,Wunderground v.1.15,2013-04-20 04:00:00,
2013-04-19 23:03:00,45.3,32.6,30.25,North,-999,0.0,0.0,61,0.00,,,-99.99,WeatherLink 6.0.2,2013-04-20 04:03:00,
2013-04-19 23:05:00,45.5,34.4,30.24,North,-999,0.0,0.0,65,0.00,,,-99.99,WeatherLink 6.0.2,2013-04-20 04:05:00,
2013-04-19 23:09:00,45.5,34.0,30.24,West,267,0.0,0.0,64,0.00,,,0.00,Wunderground v.1.15,2013-04-20 04:09:00,
2013-04-19 23:14:00,44.5,33.8,30.24,West,267,0.0,0.0,66,0.00,,,0.00,Wunderground v.1.15,2013-04-20 04:14:00,
2013-04-19 23:19:00,43.9,33.3,30.24,West,267,0.0,0.0,66,0.00,,,0.00,Wunderground v.1.15,2013-04-20 04:19:00,
2013-04-19 23:20:00,43.8,33.6,30.24,North,-999,0.0,0.0,67,0.00,,,-99.99,WeatherLink 6.0.2,2013-04-20 04:20:00,
2013-04-19 23:24:00,43.0,33.5,30.24,West,267,0.0,0.0,69,0.00,,,0.00,Wunderground v.1.15,2013-04-20 04:24:00,
2013-04-19 23:29:00,42.4,34.0,30.24,West,267,0.0,0.0,72,0.00,,,0.00,Wunderground v.1.15,2013-04-20 04:29:00,
2013-04-19 23:34:00,42.4,34.0,30.24,West,267,0.0,0.0,72,0.00,,,0.00,Wunderground v.1.15,2013-04-20 04:34:00,
2013-04-19 23:35:00,42.5,34.1,30.24,North,-999,0.0,0.0,72,0.00,,,-99.99,WeatherLink 6.0.2,2013-04-20 04:35:00,
2013-04-19 23:39:00,42.9,33.8,30.24,West,267,0.0,0.0,70,0.00,,,0.00,Wunderground v.1.15,2013-04-20 04:39:00,
2013-04-19 23:44:00,43.3,34.2,30.24,West,267,0.0,0.0,70,0.00,,,0.00,Wunderground v.1.15,2013-04-20 04:44:00,
2013-04-19 23:50:00,43.6,34.1,30.24,North,-999,0.0,0.0,69,0.00,,,-99.99,WeatherLink 6.0.2,2013-04-20 04:50:00,
2013-04-19 23:54:00,43.6,33.7,30.24,West,267,0.0,0.0,68,0.00,,,0.00,Wunderground v.1.15,2013-04-20 04:54:00,
2013-04-19 23:59:00,43.6,33.4,30.24,West,267,0.0,0.0,67,0.00,,,0.00,Wunderground v.1.15,2013-04-20 04:59:00,